This demonstration page uses our WeatherBlox Daily Observations layout. Learn more.

Left ArrowRight Arrow

39.01783, -85.05884

Hourly Observations for March 30, 2018

Temp ( °F °C ) Dew Point ( °F °C ) Humidity (%) Winds ( mph kmh ) Pressure ( in mb ) Visibility ( mi km ) Precip ( " mm )
12:40 am 00:40 Cloudy with Heavy Rain 44 6.7 43 6.1 96 96 N 16 26 29.91 1013 4 6 0.03 0.76
12:52 am 00:52 Cloudy with Rain 44 6.7 43 6.1 96 96 N 15 24 29.87 1012 4 6 0.06 1.52
1:30 am 01:30 Cloudy with Rain 44 6.7 43 6.1 96 96 N 17 28 29.91 1013 6 10 0.07 1.78
1:52 am 01:52 Cloudy with Light Rain 44 6.7 42 5.6 93 93 N 17 28 29.90 1013 9 14 0.08 2.03
2:52 am 02:52 Cloudy with Light Rain 43 6.1 41 5 93 93 N 13 20 29.89 1012 10 16 0.04 1.02
3:30 am 03:30 Cloudy 43 6.1 41 5 93 93 N 14 22 29.91 1013 10 16 N/A
3:52 am 03:52 Cloudy 43 6.1 40 4.4 89 89 N 14 22 29.90 1013 10 16 N/A
4:24 am 04:24 Cloudy 43 6.1 41 5 93 93 NNW 12 19 29.97 1015 10 16 N/A
4:52 am 04:52 Cloudy 43 6.1 41 5 93 93 N 10 17 29.93 1014 10 16 N/A
5:52 am 05:52 Cloudy with Light Rain 42 5.6 41 5 96 96 NNW 13 20 29.96 1015 9 14 0.01 0.25
6:52 am 06:52 Cloudy with Light Rain 42 5.6 41 5 96 96 NNW 9 15 29.99 1016 7 11 N/A
7:22 am 07:22 Cloudy with Light Rain 42 5.6 41 5 96 96 NW 9 15 30.06 1018 6 10 0.01 0.25
7:35 am 07:35 Cloudy with Light Rain 42 5.6 41 5 96 96 NW 8 13 30.06 1018 6 10 0.01 0.25
7:52 am 07:52 Cloudy with Light Rain 42 5.6 41 5 96 96 N 8 13 30.04 1017 5 8 0.02 0.51
8:07 am 08:07 Cloudy with Mist and Fog 42 5.6 41 5 96 96 NW 9 15 30.09 1019 6 10 N/A
8:52 am 08:52 Cloudy with Light Rain 43 6.1 42 5.6 97 97 NNW 10 17 30.07 1018 4 6 0.01 0.25
9:52 am 09:52 Cloudy with Light Rain 43 6.1 42 5.6 97 97 WNW 7 11 30.11 1020 4 6 0.05 1.27
10:52 am 10:52 Cloudy with Light Rain 42 5.6 40 4.4 92 92 NNW 10 17 30.14 1021 10 16 0.03 0.76
11:16 am 11:16 Cloudy with Light Rain 43 6.1 40 4.4 89 89 NNW 12 19 30.18 1022 10 16 N/A
11:52 am 11:52 Cloudy with Light Rain 43 6.1 41 5 93 93 NNW 3 6 30.16 1021 10 16 0.01 0.25
12:08 pm 12:08 Cloudy 45 7.2 41 5 86 86 N N/A 30.18 1022 10 16 N/A
12:52 pm 12:52 Cloudy 47 8.3 41 5 80 80 VRB 3 6 30.16 1021 10 16 N/A
12:54 pm 12:54 Cloudy 47 8.3 41 5 80 80 NW 7 11 30.18 1022 10 16 N/A
1:15 pm 13:15 Cloudy 47 8.3 41 5 80 80 NNW 9 15 30.21 1023 10 16 N/A
1:52 pm 13:52 Cloudy 47 8.3 41 5 80 80 NNW 5 7 30.17 1022 10 16 N/A
2:15 pm 14:15 Cloudy 46 7.8 41 5 83 83 WNW 10 17 30.21 1023 10 16 N/A
2:52 pm 14:52 Cloudy 46 7.8 42 5.6 86 86 NW 14 22 30.18 1022 10 16 N/A
3:14 pm 15:14 Cloudy 46 7.8 41 5 83 83 NW 13 20 30.21 1023 10 16 N/A
3:52 pm 15:52 Cloudy 45 7.2 41 5 86 86 N 14 22 30.19 1022 9 14 N/A
4:13 pm 16:13 Cloudy 45 7.2 40 4.4 83 83 NNW 9 15 30.21 1023 10 16 N/A
4:52 pm 16:52 Cloudy 44 6.7 40 4.4 85 85 NW 8 13 30.19 1023 9 14 N/A
5:52 pm 17:52 Cloudy 45 7.2 41 5 86 86 W 9 15 30.20 1023 9 14 N/A
6:52 pm 18:52 Cloudy 45 7.2 39 3.9 80 80 WSW 7 11 30.21 1023 10 16 N/A
7:09 pm 19:09 Partly Cloudy 45 7.2 39 3.9 80 80 W 7 11 30.24 1024 10 16 N/A
7:52 pm 19:52 Mostly Sunny 43 6.1 37 2.8 80 80 WSW 7 11 30.22 1023 10 16 N/A
8:52 pm 20:52 Mostly Clear 42 5.6 37 2.8 82 82 WSW 5 7 30.23 1024 10 16 N/A
9:52 pm 21:52 Clear with Mist and Fog 37 2.8 37 2.8 100 100 S 3 6 30.25 1024 6 10 N/A
10:52 pm 22:52 Clear 37 2.8 36 2.2 96 96 N N/A 30.26 1025 7 11 N/A
11:52 pm 23:52 Clear 36 2.2 35 1.7 97 97 SSW 3 6 30.27 1025 9 14 N/A

Powered by AerisWeather